sat.trackr.live / text

‹ back to catalog

STARLINK-2621

NORAD 48370 · 2021-038T

PAYLOAD ACTIVE UNKNOWN

§ Identity

Operator
Country
US
Launch date
2021-05-04
Launch site
AFETR
Launch vehicle
Mass (kg)
RCS (m²)

Purposes: comms

External: N2YO · Heavens-Above · Gunter

§ Orbital elements

Epoch: 2026-05-25T00:21:08.885088Z

Period
94.01 min
Inclination
53.1616°
Eccentricity
0.0001144
Mean motion
15.31698391 rev/d
Perigee alt
470.0 km
Apogee alt
471.5 km
Semi-major
6,848.9 km
B*
3.5800e-5
RAAN
352.7661°
Arg perigee
90.8420°
Mean anomaly
269.2713°
Rev number
27,891

§ Raw data

STARLINK-26211 48370U 21038T   26145.01468617  .00000746  00000+0  35800-4 0  99932 48370  53.1616 352.7661 0001144  90.8420 269.2713 15.31698391278912

JSON: /api/v1/satellites/48370 · /tle

For live sub-satellite position, see the globe view (requires WebGL).

§ Visibility from observer

Set your observer location to see the next 7 days of passes ≥ 10°. The values pass through the URL so the page stays shareable.

No JS? Fill the form by hand. The geolocation button needs JavaScript.